Flag for Germany Weather past 2 weeks in Rheinberg, North Rhine-Westphalia, Germany

Now
48 °F

Overcast.


Feels Like: 46 °F
Forecast: 40 / 45 °F
Wind: 6 mph from West

Location: Duesseldorf

Current Time: Dec 19, 2014 at 4:15:47 PM

Latest Report: Dec 19, 2014 at 3:00 PM


Visibility: 9 mi

Pressure: 29.90 "Hg

Humidity: 91%

Dew point: 46 °F

Location of RheinbergLocation

Historic Weather in Rheinberg — Graph

°F

Rheinberg temperature yesterday

Maximum temperature yesterday: 55 °F (at 7:00 PM)
Minimum temperature yesterday: 50 °F (at 12:00 AM)
Average temperature yesterday: 52 °F

Past Weeks' High & Low Weather Summary

 TemperatureHumidityPressure
High55 °F (Dec 18, 7:00 PM)100% (Dec 14, 6:00 AM)30.39 "Hg (Dec 14, 6:00 AM)
Low30 °F (Dec 14, 6:00 AM)65% (Dec 7, 3:00 PM)29.41 "Hg (Dec 12, 1:00 PM)
Average42 °F87%29.97 "Hg
* Reported Dec 4 3:00 PM — Dec 19 3:00 PM, Rheinberg, Weather by CustomWeather, © 2014

Note: Actual official high and low records may vary slightly from our data, if they occured in-between our weather recording intervals... More about our weather records

Advertising

Rheinberg weather history for previous 24 hours

 ConditionsComfort  
Time TempWeatherWind HumidityBarometerVisibility
3:00 PM
Dec 19
48 °FOvercast.6 mph91%29.90 "Hg9 mi
2:00 PM50 °FLight rain. Low clouds.3 mph92%29.86 "Hg9 mi
1:00 PM52 °FRain. Overcast.10 mph92%29.83 "Hg7 mi
12:00 PM52 °FRain. Overcast.10 mph91%29.83 "Hg9 mi
11:00 AM52 °FRain. Overcast.13 mph91%29.84 "Hg7 mi
9:00 AM52 °FRain. Low clouds.12 mph90%29.83 "Hg9 mi
8:00 AM53 °FRain. Overcast.12 mph85%29.83 "Hg7 mi
7:00 AM53 °FLight rain. Overcast.12 mph83%29.85 "Hg16 mi
6:00 AM53 °FOvercast.10 mph86%29.86 "Hg9 mi
5:00 AM53 °FOvercast.13 mph87%29.88 "Hg9 mi
3:00 AM53 °FLight rain. Overcast.12 mph89%29.91 "Hg9 mi
2:00 AM53 °FLight rain. Overcast.10 mph92%29.90 "Hg7 mi
1:00 AM54 °FLight rain. Low clouds.12 mph87%29.91 "Hg12 mi
12:00 AM54 °FLow clouds.12 mph85%29.90 "Hg12 mi
11:00 PM
Dec 18
54 °FLow clouds.10 mph86%29.90 "Hg9 mi
9:00 PM53 °FDrizzle. Low clouds.10 mph89%29.90 "Hg6 mi
8:00 PM54 °FLow clouds.13 mph85%29.89 "Hg16 mi
7:00 PM55 °FOvercast.10 mph81%29.88 "Hg28 mi
6:00 PM55 °FLow clouds.12 mph89%29.87 "Hg9 mi
5:00 PM54 °FLow clouds.9 mph92%29.86 "Hg6 mi
Weather by CustomWeather, © 2014

See weather overviewHow to use our weather pages